Datum Uhrzeit Temperatur Luft Windgeschw. Regen Regen (1h) Temp (1h) Luftdruck Windrichtung Taupunkt Sensor
2019-01-16 01:35:00 6.6 89.0 18.0 0.0 0.0 -0.4 4.9 Kombisensor
2019-01-16 01:32:00 6.7 89.0 5.5 0.0 0.0 -0.3 5.0 Kombisensor
2019-01-16 01:30:00 6.7 89.0 5.8 0.0 0.0 -0.3 5.0 Kombisensor
2019-01-16 01:27:00 6.7 89.0 16.1 0.0 0.0 -0.4 5.0 Kombisensor
2019-01-16 01:25:00 6.8 89.0 4.4 0.0 0.0 -0.3 5.1 Kombisensor
2019-01-16 01:20:00 6.8 89.0 7.2 0.0 0.0 -0.3 5.1 Kombisensor
2019-01-16 01:17:00 6.8 89.0 6.1 0.0 0.0 -0.4 5.1 Kombisensor
2019-01-16 01:15:00 6.8 89.0 6.9 0.0 0.0 -0.4 5.1 Kombisensor
2019-01-16 01:12:00 6.8 88.0 5.0 0.0 0.0 -0.4 5.0 Kombisensor
2019-01-16 01:09:00 6.8 88.0 5.5 0.0 0.0 -0.4 5.0 Kombisensor
2019-01-16 01:07:00 6.8 88.0 5.2 0.0 0.0 -0.4 5.0 Kombisensor
2019-01-16 01:04:00 6.9 88.0 4.7 0.0 0.0 -0.3 5.0 Kombisensor
2019-01-16 01:02:00 6.9 88.0 4.1 0.0 0.0 3.7 5.0 Kombisensor
2019-01-16 00:59:00 6.9 88.0 4.4 0.0 0.0 3.7 5.0 Kombisensor
2019-01-16 00:57:00 6.9 88.0 4.7 0.0 0.0 0.0 5.0 Kombisensor
2019-01-16 00:54:00 6.9 88.0 5.0 0.0 0.0 0.0 5.0 Kombisensor
2019-01-16 00:52:00 6.9 88.0 3.3 0.0 0.0 0.0 5.0 Kombisensor
2019-01-16 00:49:00 6.9 88.0 5.0 0.0 0.0 0.0 5.0 Kombisensor
2019-01-16 00:47:00 6.9 88.0 4.1 0.0 0.0 -0.1 5.0 Kombisensor
2019-01-16 00:44:00 7.0 88.0 3.8 0.0 0.0 0.0 5.2 Kombisensor
2019-01-16 00:39:00 7.0 89.0 5.8 0.0 0.0 0.0 5.3 Kombisensor
2019-01-16 00:36:00 7.0 89.0 3.6 0.0 0.0 0.0 5.3 Kombisensor
2019-01-16 00:34:00 7.0 88.0 4.7 0.0 0.0 0.0 5.2 Kombisensor
2019-01-16 00:31:00 7.0 88.0 19.1 0.0 0.0 0.0 5.2 Kombisensor
2019-01-16 00:29:00 7.0 88.0 4.1 0.0 0.0 -0.1 5.2 Kombisensor
2019-01-16 00:26:00 7.1 88.0 26.6 0.0 0.0 0.0 5.2 Kombisensor
2019-01-16 00:24:00 7.1 88.0 5.8 0.0 0.0 0.0 5.2 Kombisensor
2019-01-16 00:21:00 7.1 88.0 6.6 0.0 0.0 0.0 5.2 Kombisensor
2019-01-16 00:19:00 7.1 89.0 5.5 0.0 0.0 -0.1 5.4 Kombisensor
2019-01-16 00:16:00 7.2 89.0 6.9 0.0 0.0 0.0 5.5 Kombisensor
2019-01-16 00:14:00 7.2 89.0 5.2 0.0 0.0 0.0 5.5 Kombisensor
2019-01-16 00:11:00 7.2 89.0 7.2 0.0 0.0 0.0 5.5 Kombisensor
2019-01-16 00:08:00 7.2 89.0 6.6 0.0 0.0 0.0 5.5 Kombisensor
2019-01-16 00:03:00 7.2 89.0 6.3 0.0 0.0 0.0 5.5 Kombisensor